Miscellaneous Local Product
Issued by NWS North Platte, NE

Home | Current Version | Previous Version | Text Only | Print | Product List | Glossary On
Versions: 1 2 3 4 5 6 7 8 9 10 11 12 13 14 15 16 17 18 19 20 21 22 23 24 25 26 27 28 29 30 31 32 33 34 35 36 37 38 39 40 41 42 43 44 45 46 47 48 49 50
000
AXUS43 KLBF 230010
MISLBF


WESTERN AND NORTH CENTRAL NEBRASKA HOURLY WEATHER ROUNDUP
NATIONAL WEATHER SERVICE NORTH PLATTE NE
600 PM CST THU FEB 22 2018

NOTE: "FAIR" INDICATES FEW OR NO CLOUDS BELOW 12,000 FEET WITH NO
SIGNIFICANT WEATHER AND/OR OBSTRUCTIONS TO VISIBILITY.

NOTE: STATIONS NOT REPORTING VARIABLES SUCH AS SKY/WEATHER OR
PRESSURE ARE PROVIDED BY RAWS AND APRS NETWORKS AND ARE NOT UNDER
NATIONAL WEATHER SERVICE QUALITY CONTROL.

...OBSERVATIONS IN AND NEAR THE EASTERN PANHANDLE OF NEBRASKA...

CITY           SKY/WX    TMP DP  RH WIND       PRES   REMARKS
PINE RIDGE     CLOUDY    24  20  84 CALM      30.03R
GORDON         LGT SNOW  23  19  87 SW3       30.02R
CHADRON        MOCLDY    20  13  74 NW3       30.03S
ALLIANCE       CLOUDY    21  16  81 S7        29.99S WCI  12
SIDNEY         MOCLDY    24  15  68 SW6       30.00R WCI  17
$$

...OBSERVATIONS IN NORTHERN NEBRASKA AND FAR SOUTHERN SOUTH DAKOTA...

CITY           SKY/WX    TMP DP  RH WIND       PRES   REMARKS
WINNER         LGT SNOW  23  19  85 SE8       30.12F FOG     WCI  14
VALENTINE      CLOUDY    24  18  77 S6        30.08F WCI  17
AINSWORTH      CLOUDY    22  21  96 S5        30.09S FOG     WCI  15
O`NEILL        LGT SNOW  22  21  98 SE3       30.13S VSB 1
THEDFORD       CLOUDY    23  20  87 S5        30.08S WCI  17
BROKEN BOW     CLOUDY    23  19  85 S3        30.10R
ORD            CLOUDY    23  20  88 SW3       30.12F FOG
ALBION         SNOW      25  23  93 SW3       30.15S VSB 1/2
VALENTINE NWR    N/A     21  16  81 S6          N/A  WCI  13
HALSEY           N/A     22  17  82 CALM        N/A
BUTTE            N/A     20  18  92 CALM        N/A
CHAMBERS         N/A     23  17  78 CALM        N/A
EWING            N/A     23  21  91 SW3         N/A
$$

...OBSERVATIONS IN SOUTHWEST NEBRASKA AND FAR NORTHEAST COLORADO...

CITY           SKY/WX    TMP DP  RH WIND       PRES   REMARKS
WRAY           MOCLDY    32  19  59 CALM      30.01R
HOLYOKE        FAIR      30  19  64 SE10      30.01R WCI  21
IMPERIAL       CLOUDY    23  18  81 E6        30.04F WCI  16
OGALLALA       CLOUDY    24  19  80 SE5       30.06S WCI  18
NORTH PLATTE   CLOUDY    24  16  71 W6        30.10R WCI  17
MCCOOK         CLOUDY    24  23  96 CALM      30.10S FOG
LEXINGTON      CLOUDY    26  21  81 SW7       30.11S WCI  19
STAPLETON        N/A     21  16  81 CALM        N/A
$$

...OBSERVATIONS IN CENTRAL LINCOLN COUNTY AREA...

CITY           SKY/WX    TMP DP  RH WIND       PRES   REMARKS
N.P. AIRPORT   CLOUDY    24  16  71 W6        30.10R WCI  17
N.P. DOWNTOWN    N/A     22  17  80 CALM        N/A
N.P. SOUTHEAST   N/A     22  16  76 CALM        N/A
N.P. HILLCREST   N/A     22  19  86 CALM        N/A
$$

...OBSERVATIONS ACROSS THE ROCKIES AND WESTERN HIGH PLAINS...

CITY           SKY/WX    TMP DP  RH WIND       PRES   REMARKS
RAPID CITY     MOCLDY     9   0  67 NW10      30.05S WCI  -5
SCOTTSBLUFF    PTCLDY    24  18  77 S5        30.00S WCI  18
CHEYENNE       PTCLDY    23  14  68 NE8       29.91R WCI  14
DENVER         SNOW      21  17  84 NW13      29.95R VSB 1/2 WCI   9
BERTHOUD PASS  SNOW       3  -8  60 N10G17    29.76R VSB 1/2 WCI -12
COPPER MTN     CLOUDY    12   3  67 SW5       29.79S WCI   4
MONARCH PASS   SNOW       9   3  78 W24       29.92R VSB 1/4 WCI -12
ASPEN          MOCLDY    23  15  71 N7        29.87R WCI  15
LARAMIE        CLOUDY    17  11  77 N5        29.87R WCI  10
CASPER         CLEAR     17   8  67 W3        29.94S
$$

...OBSERVATIONS ACROSS THE NORTHERN PLAINS...

CITY           SKY/WX    TMP DP  RH WIND       PRES   REMARKS
BISMARCK       CLOUDY    17   9  70 E5        30.21R WCI  10
FARGO          CLOUDY    23  15  71 SE7       30.30F WCI  15
PIERRE         SNOW      21  20  96 SE10      30.15R VSB 1/4 WCI  10
SIOUX FALLS    HVY SNOW  25  23  92 SE9       30.16F VSB 1/4 WCI  15
$$

...OBSERVATIONS ACROSS THE CENTRAL AND SOUTHERN PLAINS...

CITY           SKY/WX    TMP DP  RH WIND       PRES   REMARKS
OMAHA          CLOUDY    31  28  89 SE5       30.18F WCI  26
GRAND ISLAND   CLOUDY    26  23  88 CALM      30.14F FOG
KANSAS CITY    FOG       32  31  96 SE9       30.18S VSB 1/2 WCI  24
WICHITA        CLOUDY    32  32 100 CALM      30.15F
DODGE CITY     CLOUDY    30  27  88 S10       30.06F FOG     WCI  21
OKLAHOMA CITY  FOG       32  31  96 CALM      30.16F VSB 1/2
DALLAS         DRIZZLE   39  37  92 N5        30.21S FOG
AMARILLO       CLOUDY    48  31  51 S17       30.04R
$$




USA.gov is the U.S. government's official web portal to all federal, state and local government web resources and services.